Hourly Weather Roundup
Issued by NWS Central Illinois

Home | Current Version | Previous Version | Text Only | Print | Product List | Glossary On
Versions: 1 2 3 4 5 6 7 8 9 10 11 12 13 14 15 16 17 18 19 20 21 22 23 24 25 26 27 28 29 30 31 32 33 34 35 36 37 38 39 40 41 42 43 44 45 46 47 48 49 50
000
NZUS43 KILX 232310
HWRILX

Area Weather Roundup
National Weather Service Lincoln IL
500 PM CST FRI FEB 23 2018

NOTE:  "FAIR" indicates few or no clouds below 12,000 feet, with
       no sigificant weather and/or obstructions to visibility.


CITY           SKY/WX    TMP DP  RH WIND       PRES   REMARKS
Bloomington    CLOUDY    37  35  92 W7        30.26S WCI  32
Champaign      CLOUDY    41  40  96 NW9       30.25S
Danville       CLOUDY    42  40  92 W7        30.23R
Decatur        CLOUDY    41  38  89 NW5       30.26S
Effingham      CLOUDY    49  46  88 W3        30.27R
Flora          CLOUDY    52  47  85 NW6       30.26R
Galesburg      FAIR      38  34  84 NW5       30.25F WCI  35
Jacksonville   CLOUDY    37  34  88 NW3       30.28S
Lacon          CLOUDY    38  33  84 W6        30.25F WCI  33
Lawrenceville  MOCLDY    52  48  86 NW3       30.24F
Litchfield     CLOUDY    43  40  90 N7        30.27R
$$


CITY           SKY/WX    TMP DP  RH WIND       PRES   REMARKS
Lincoln        CLOUDY    38  37  94 W3        30.28R
Macomb         MOCLDY   N/A N/A N/A W3        30.29R
Mattoon        CLOUDY    45  42  89 NW10      30.25R
Mt Carmel AP   CLOUDY    51  48  90 CALM      30.22F
Olney-Noble AP CLOUDY    50  48  93 CALM      30.24F
Paris AP       CLOUDY    45  43  92 NW9       30.26S
Peoria         CLOUDY    38  33  82 NW5       30.27S WCI  34
Pontiac        CLOUDY    38  38  98 W9        30.27R WCI  32
Rantoul        CLOUDY    42  40  96 W9        30.25S
Robinson       CLOUDY    50  47  90 W6        30.26S
Springfield    CLOUDY    40  36  86 W5        30.29R
Taylorville    CLOUDY    41  38  91 NW8       30.27S
$$

...REGIONAL REPORTS...


CITY           SKY/WX    TMP DP  RH WIND       PRES   REMARKS
Chicago O`Hare CLOUDY    39  33  79 W9        30.22R WCI  33
Kankakee       CLOUDY    38  36  91 W12       30.27R WCI  31
Moline         CLOUDY    39  31  72 W8        30.25F WCI  33
Mount Sterling CLOUDY    37  34  90 NW5       30.27S WCI  33
Mount Vernon   CLOUDY    50  48  93 CALM      30.25R
Pittsfield     CLOUDY    38  35  90 W3        30.29R
Quincy         CLOUDY    38  33  82 N3        30.26F
Rockford       CLOUDY    37  30  75 NW10      30.24R WCI  30
$$


CITY           SKY/WX    TMP DP  RH WIND       PRES   REMARKS
Burlington     CLOUDY    39  30  70 NW3       30.25S
Cedar Rapids   FAIR      32  25  75 NW10      30.26S WCI  24
Des Moines     MOCLDY    30  23  75 NW13      30.27F WCI  20
Kirksville     CLOUDY    39  33  79 N3        30.25F
Ottumwa        PTCLDY    38  28  67 N10       30.26S WCI  31
St Louis       CLOUDY    45  41  86 N6        30.25F
$$


CITY           SKY/WX    TMP DP  RH WIND       PRES   REMARKS
Terre Haute    CLOUDY    50  45  83 NW3       30.25R
Evansville     FAIR      52  50  93 N3        30.25S
Indianapolis   CLOUDY    50  46  86 NW13      30.24R
Lafayette      CLOUDY    44  41  89 W9        30.25R
Madison        CLOUDY    36  27  69 VRB7      30.21R WCI  30
Milwaukee      CLOUDY    39  31  72 W10       30.20R WCI  32
$$






USA.gov is the U.S. government's official web portal to all federal, state and local government web resources and services.